[Iaude] MPEC K115: 2024 KR [a=1.44,e=0.36,i=29.4,H=21.4,PHA]

mpec at cfa.harvard.edu mpec at cfa.harvard.edu
Tue May 28 20:33:45 EDT 2024


M.P.E.C. 2024-K115                                 Issued 2024 May 29, 00:32 UT

     The Minor Planet Electronic Circulars contain information on unusual
         minor planets, routine data on comets and natural satellites,
         and occasional editorial announcements.  They are published
    on behalf of Division F of the International Astronomical Union by the
          Minor Planet Center, Smithsonian Astrophysical Observatory,
                          Cambridge, MA 02138, U.S.A.
			  
             Prepared using the Tamkin Foundation Computer Network

                              MPC at CFA.HARVARD.EDU
            URL https://www.minorplanetcenter.net/    ISSN 1523-6714

                                    2024 KR                                     


Observations:
     K24K00R* C2024 05 26.31650622 30 18.962-59 21 17.71         17.37oVEK115W68
     K24K00R  C2024 05 26.33845522 28 55.757-59 15 23.83         17.30oVEK115W68
     K24K00R  C2024 05 26.34133122 28 44.978-59 14 38.15         17.83oVEK115W68
     K24K00R  C2024 05 26.34728522 28 22.246-59 13 00.08         17.27oVEK115W68
     K24K00R  C2024 05 26.38301922 26 06.178-59 03 04.43         16.97oVEK115W68
     K24K00R  C2024 05 26.38347022 26 04.430-59 02 56.62         17.35oVEK115W68
     K24K00R  C2024 05 26.38392122 26 02.760-59 02 49.52         17.55oVEK115W68
     K24K00R  C2024 05 26.38437222 26 00.991-59 02 41.93         17.21oVEK115W68
     K24K00R  C2024 05 26.38482222 25 59.414-59 02 34.15         16.94oVEK115W68
     K24K00R  C2024 05 27.99736020 56 01.322-47 25 25.43         16.03oVEK115M22
     K24K00R  C2024 05 27.99987320 55 53.902-47 24 00.58         16.88oVEK115M22
     K24K00R  C2024 05 28.00176020 55 48.276-47 22 58.08         16.89oVEK115M22
     K24K00R  C2024 05 28.00274320 55 45.242-47 22 22.73         17.49oVEK115M22
     K24K00R  C2024 05 28.00472220 55 39.521-47 21 17.46         16.79oVEK115M22
     K24K00R  C2024 05 28.01801120 55 00.334-47 13 50.95         18.00oVEK115M22
     K24K00R  C2024 05 28.14729120 48 59.79 -45 57 14.5                WEK115X09
     K24K00R  C2024 05 28.15295120 48 43.89 -45 53 59.0                WEK115X09
     K24K00R KC2024 05 28.93684 20 15 34.57 -37 33 52.6          16.5 GVEK115M21
     K24K00R KC2024 05 28.93970 20 15 27.84 -37 31 58.6          16.7 GVEK115M21
     K24K00R KC2024 05 28.94874 20 15 06.69 -37 25 57.0          16.9 GVEK115M21

Observer details:
M21 Schiaparelli Southern Observatory, Hakos.  Observers A. Aletti, F.
    Bellini, L. Buzzi, G. Galli.  Measurer G. Galli.  0.36-m f/8.4 reflector +
    CCD.
M22 ATLAS South Africa, Sutherland.  Observers L. Denneau, R. Siverd, J.
    Tonry, H. Weiland.  Measurers L. Denneau, N. Erasmus, A. Fitzsimmons, J.
    Robinson, R. Siverd, J. Tonry, H. Weiland.  0.5-m Reflector + CCD.
W68 ATLAS Chile, Rio Hurtado.  Observers L. Denneau, R. Siverd, J. Tonry, H.
    Weiland.  Measurers L. Denneau, N. Erasmus, A. Fitzsimmons, J. Robinson,
    R. Siverd, J. Tonry, H. Weiland.  0.5-m Reflector + CCD.
X09 Deep Random Survey, Rio Hurtado.  Observers A. Schnabel, D. Ruhela.
    Measurer S. Deen.  0.43-m reflector + CMOS.

Orbital elements:
2024 KR                                             PHA, Earth MOID = 0.0284 AU
Epoch 2024 Mar. 31.0 TT = JDT 2460400.5                 Veres                   
M 352.48472              (2000.0)            P               Q                  
n   0.57195096     Peri.  304.12456     -0.86672655     +0.18624452             
a   1.4373533      Node   250.60667     -0.10420089     -0.97481255             
e   0.3563717      Incl.   29.37608     -0.48777788     -0.12269259             
P   1.72           H   21.48          G   0.15           U   9                  
Residuals in seconds of arc
240526 W68  0.1-  0.1-    240526 W68  0.6-  0.0     240528 M22  1.8+  1.8-
240526 W68  0.1+  0.3+    240526 W68  0.5+  0.1+    240528 X09  0.4+  0.4+
240526 W68  1.2+  0.8-    240527 M22  0.0   0.4-    240528 X09  0.1+  0.4-
240526 W68  0.4+  0.1-    240527 M22  0.3+  0.1+    240528 M21  0.6+  0.3+
240526 W68  0.4-  0.4+    240528 M22  0.1-  0.8-    240528 M21  0.1+  0.1+
240526 W68  0.6-  0.6+    240528 M22  1.3-  1.5+    240528 M21  0.0   0.2+
240526 W68  0.2-  0.0     240528 M22  0.1+  0.2+

Ephemeris:
2024 KR                  a,e,i = 1.44, 0.36, 29                  q = 0.9251
Date    TT    R. A. (2000) Decl.     Delta      r    Elong.  Phase     V
2024 04 29    04 19 09.8 -49 19 00   0.2890  0.9404    68.5    94.9    22.0
...
2024 05 14    03 42 57.4 -55 40 45   0.1543  0.9805    74.4    96.9    20.9
...
2024 05 22    01 59 38.4 -62 45 27   0.08256 1.0102    86.2    89.1    19.2
...
2024 05 28    20 55 43.3 -47 24 12   0.04326 1.0355   119.7    58.2    16.8
2024 05 29    20 12 58.2 -36 51 46   0.04149 1.0399   128.6    49.6    16.5
2024 05 30    19 40 00.8 -25 15 38   0.04203 1.0444   136.1    42.3    16.3
...
2024 06 05    18 09 04.3 +17 28 43   0.07855 1.0724   135.8    41.2    17.7
...
2024 06 13    17 33 19.4 +30 38 56   0.1522  1.1121   126.1    47.5    19.4
...
2024 06 28    17 13 24.1 +34 49 14   0.2985  1.1913   119.3    48.1    21.0

M. P. C. Staff               (C) Copyright 2024 MPC           M.P.E.C. 2024-K115





More information about the Iaude mailing list